Regional Weather Roundup
Issued by NWS

Home | Current Version | Previous Version | Text Only | Print | Product List | Glossary On
Versions: 1 2 3 4 5 6 7 8 9 10 11 12 13 14 15 16 17 18 19 20 21 22 23 24 25 26 27 28 29 30 31 32 33 34 35 36 37 38 39 40 41 42 43 44 45 46 47 48 49 50
000
ASUS43 KMPX 280710
RWRMN
WEATHER ROUNDUP FOR MINNESOTA
NATIONAL WEATHER SERVICE TWIN CITIES/CHANHASSEN MN
200 AM CDT TUE JUL 28 2015


NOTE: "FAIR" INDICATES FEW OR NO CLOUDS BELOW 12,000 FEET WITH NO
SIGNIFICANT WEATHER AND/OR OBSTRUCTIONS TO VISIBILITY. N/A MEANS
CURRENT SKY AND/OR WEATHER CONDITIONS ARE NOT AVAILABLE.

MNZ060>063-068>070-280800-
   Twin Cities Metro

CITY           SKY/WX    TMP DP  RH WIND       PRES   REMARKS
TWIN CITIES    PTCLDY    75  71  87 SE9       29.87F
ST PAUL        CLEAR     75  71  87 SE13      29.87F
CRYSTAL        CLEAR     77  71  82 SE14      29.85F
BLAINE         PTCLDY    77  73  88 SE10G16   29.87F
LAKEVILLE      CLEAR     72  70  94 SE7       29.88F
EDEN PRAIRIE   MOCLDY    75  71  87 SE12      29.85F
SOUTH ST PAUL  CLEAR     74  70  85 SE5       29.87F
LAKE ELMO      FAIR      73  70  88 SE9       29.90F
$$
MNZ001>005-007-008-013>017-022>024-027-028-280800-
   Northwest Minnesota

CITY           SKY/WX    TMP DP  RH WIND       PRES   REMARKS
BEMIDJI        CLEAR     73  70  90 SE10      29.80F
HALLOCK        PTCLDY    75  72  88 SE10      29.70F
ROSEAU         PTCLDY    73  68  83 SE7       29.77F
WARROAD        PTCLDY    73  70  88 SE8       29.78F
THIEF RVR FALL CLEAR     73  70  88 SE8       29.74F
CROOKSTON      CLEAR     73  72  94 SE8       29.72F
FOSSTON        PTCLDY    73  70  88 SE10      29.76F
DETROIT LAKES  MOCLDY    75  70  83 SE13      29.78F
MOORHEAD       CLEAR     75  72  88 SE10      29.71F
PARK RAPIDS    CLOUDY    76  70  82 SE15G22   29.80F
MAHNOMEN       CLOUDY    75  71  86 S12       29.74F
$$
MNZ006-009>011-018-025>026-280800-
   North Central Minnesota

CITY           SKY/WX    TMP DP  RH WIND       PRES   REMARKS
BAUDETTE       PTCLDY    72  67  84 SE9       29.81F
FLAG ISLAND    CLEAR     79  72  78 S22       29.77F
INTL FALLS     PTCLDY    70  65  84 SE6       29.85F
WASKISH        PTCLDY    73  70  88 E6        29.80F
BIG FORK       PTCLDY    72  66  83 SE5       29.86F
LONGVILLE      CLEAR     72  70  94 SE6       29.83F
GRAND RAPIDS   CLEAR     70  64  83 SE8       29.87F
CRANE LAKE     PTCLDY    64  61  88 SE1       29.91F
ORR            PTCLDY    70  61  73 SE3       29.87F
COOK           CLEAR     70  63  78 CALM      29.90F
WALKER         PTSUNNY   73  70  89 SE7       29.81F
$$
MNZ012-019>021-037-280800-
   Northeast Minnesota

CITY           SKY/WX    TMP DP  RH WIND       PRES   REMARKS
DULUTH         PTCLDY    74  64  71 S9        29.92F
ELY            CLEAR     66  61  82 SE5       29.93F
HIBBING        MOCLDY    67  64  90 SE6       29.89F
EVELETH        MOCLDY    68  61  77 CALM      29.92F
DULUTH HARBOR  PTCLDY    73  66  78 CALM      29.90F
TWO HARBORS    MOCLDY    70  64  83 NE3       29.91F
SILVER BAY     MOCLDY    63  61  94 CALM      29.92F
GRAND MARAIS     N/A     61  57  87 N3        29.94F
G MARAIS ARPRT CLEAR     61  55  82 CALM      30.01F
$$
MNZ029>031-032-039>041-046>048-054>057-064-280800-
   West Central Minnesota

CITY           SKY/WX    TMP DP  RH WIND       PRES   REMARKS
FERGUS FALLS   CLEAR     75  70  83 SE16      29.72F
WHEATON        CLEAR     72  68  88 SE15      29.71F
MORRIS         CLEAR     73  70  88 SE16      29.73F
ALEXANDRIA     CLEAR     73  70  90 SE14      29.80F
ELBOW LAKE     FAIR      73  69  88 SE13G21   29.74F
WADENA         CLOUDY    73  70  88 SE10      29.79F
GLENWOOD       CLEAR     72  70  94 SE10      29.80F
APPLETON       PTCLDY    75  66  73 SE12G23   29.73F
BENSON         PTCLDY    73  66  78 S10       29.76F
ORTONVILLE     MOCLDY    73  68  83 SE13G21   29.71F
MADISON        PTCLDY    73  68  83 SE14G21   29.74F
WILLMAR        FAIR      73  68  83 SE12      29.80F
$$
MNZ033>034-036-042>043-049>051-058-059-280800-
   Central Minnesota

CITY           SKY/WX    TMP DP  RH WIND       PRES   REMARKS
ST CLOUD       CLEAR     73  70  90 SE8       29.84F
SAUK CENTRE    FAIR      72  69  89 SE7       29.82F
PAYNESVILLE    CLEAR     71  67  87 E12       29.82F
AITKIN         CLEAR     73  66  78 SE7       29.84F
PINE RIVER     CLEAR     73  70  88 SE12      29.86F
BRAINERD       CLEAR     74  70  87 SE13      29.83F
STAPLES        MOCLDY    73  70  88 SE9G17    29.80F
LONG PRAIRIE   FAIR      72  68  88 SE10G16   29.82F
LITTLE FALLS   PTCLDY    72  68  88 SE7       29.83F
LITCHFIELD     CLEAR     75  70  83 SE7       29.84F
BUFFALO        CLEAR     74  70  86 SE7       29.85F
MAPLE LAKE     CLEAR     75  72  88 SE6       29.85F
$$
MNZ037-044-045-052-053-280800-
   East Central Minnesota

CITY           SKY/WX    TMP DP  RH WIND       PRES   REMARKS
PRINCETON      CLEAR     73  72  94 E6        29.85F
MORA           CLEAR     70  68  94 SE5       29.88F
CAMBRIDGE      CLEAR     75  66  73 SE6       29.85F
RUSH CITY      CLEAR     72  69  90 SE6       29.88F
MOOSE LAKE     CLEAR     72  66  83 S3        29.87F
HINCKLEY       FAIR      70  70 100 E5        29.88F
CLOQUET        CLEAR     70  64  83 E5        29.91F
MCGREGOR       CLEAR     72  68  88 SE8       29.87F
$$
MNZ071>073-080-081-089-090-097-098-280800-
   Southwest Minnesota

CITY           SKY/WX    TMP DP  RH WIND       PRES   REMARKS
MONTEVIDEO     MOCLDY    73  68  83 S14       29.78F
GRANITE FALLS  MOCLDY    72  67  83 SE14      29.78F
CANBY          TSTM      74  68  82 S10G21    29.76S
MARSHALL       MOCLDY    73  64  73 S16       29.77F
REDWOOD FALLS  MOCLDY    72  66  81 SE13      29.79F
OLIVIA         MOCLDY    70  64  83 SE13      29.80F
PIPESTONE      TSTM      72  66  83 S12       29.78F
WINDOM         PTCLDY    72  66  83 SE14      29.83F
WORTHINGTON    MOCLDY    72  64  78 S15       29.81F
JACKSON        PTCLDY    72  68  88 SE12G17   29.85F
TRACY          CLOUDY    73  68  83 S13G20    29.78F
SLAYTON        CLOUDY    71  67  88 SE10G16   29.81F
$$
MNZ065>067-074>077-082>085-091>093-280800-
   South Central Minnesota

CITY           SKY/WX    TMP DP  RH WIND       PRES   REMARKS
MANKATO        CLEAR     73  70  88 S14G22    29.85F
NEW ULM        PTCLDY    72  66  83 SE10      29.84F
ST JAMES       CLEAR     72  70  94 SE12      29.85F
FAIRMONT       MOCLDY    72  63  73 SE15      29.85F
GLENCOE        CLEAR     74  73  94 SE9       29.84F
FARIBAULT      CLEAR     73  72  94 SE9       29.88F
OWATONNA       CLEAR     73  70  88 SE13      29.89F
WASECA         CLEAR     72  70  94 SE8       29.90F
ALBERT LEA     MOCLDY    73  72  94 S13       29.91R
$$
MNZ078>079-086>088-094>096-280800-
   Southeast Minnesota

CITY           SKY/WX    TMP DP  RH WIND       PRES   REMARKS
ROCHESTER      CLEAR     71  69  93 SE10      29.93F FOG
RED WING       CLEAR     75  70  83 SE7       29.89F
STANTON        CLEAR     75  70  84 SE12      29.86F
DODGE CENTER   PTCLDY    70  70 100 SE7       29.92F FOG
WINONA         CLEAR     73  72  94 S3        29.93F
AUSTIN         CLEAR     73  72  94 SE7       29.91F
PRESTON        CLEAR     71  68  91 SE7       29.94F
$$
ABBREVIATIONS USED IN REMARKS
   TC - TEMPERATURES IN CELSIUS
  WCI - WIND CHILL INDEX
   HX - HEAT INDEX
  VSB - VISIBILITY
$$


USA.gov is the U.S. government's official web portal to all federal, state and local government web resources and services.